{"data":{"norad_id":54837,"intl_designator":"2022-177T","name":"STARLINK-5369","alt_names":[],"object_type":"PAYLOAD","status":"ACTIVE","operator":null,"country":"US","launch_date":"2022-12-28","launch_site_code":"AFETR","launch_vehicle":null,"mission":null,"orbit_class":"UNKNOWN","rcs_meters":null,"size_class":null,"mass_kg":null,"dimensions":null,"purposes":["comms"],"wikipedia_slug":null,"has_3d_model":false,"image_url":null,"decayed_at":null,"tle_current":{"epoch":"2026-05-25T02:45:27.404064Z","epoch_age_seconds":61016,"freshness":"FRESH","line1":"1 54837U 22177T   26145.11490051  .02707337  90641-5  60647-3 0  9995","line2":"2 54837  42.9905  41.2600 0008896 254.7045 105.2861 16.29139185188879","mean_motion":16.29139185,"eccentricity":0.0008896,"inclination_deg":42.9905,"raan_deg":41.26,"arg_perigee_deg":254.7045,"mean_anomaly_deg":105.2861,"bstar":0.00060647,"rev_number":18887,"period_min":88.390237817526,"perigee_km":189.00682684209,"apogee_km":200.70149271357,"semimajor_km":6572.9911597778,"source":"CELESTRAK","updated_at":"2026-05-25T13:38:17.722923Z"}}}